Location: Unspecified
(41.1850°N, 73.2650°W)
Time: 17:03:46
(UTC+00:00)

Cosmos 2221 - Pass Details

Date: 14 December 2025
Orbit: 569 x 590 km, 82.5° (Epoch: 15 January)

Event Time Altitude Azimuth Distance (km) Brightness Sun altitude
Rises 23:06:08 0° 167° (SSE) 2,790 6.0 -18.3°
Reaches altitude 10° 23:08:26 10° 159° (SSE) 1,891 5.0 -18.8°
Enters shadow 23:10:59 29° 130° (SE) 1,069 3.4 -19.2°
